Retour au catalogue

STARLINK-11446

ActifCommunicationsVLEO
NORAD 62416·PAYLOAD·🇺🇸 United States

Lancé Dec 23, 2024 depuis Cape Canaveral Space Force Station

Loading…

Prochains Passages (prochaines 24 heures)

TLE

FraisSource: CelesTrak SupGP

Époque: Sep 14, 2026, 22:13 UTC

1 62416C 24249H   26257.92618056 -.00204150  00000+0 -15878-2 0  2570
2 62416  43.0004 106.5630 0001372 272.0672 227.4962 15.70908143    13

Suivez STARLINK-11446 en temps réel avec AllMySat

Download on the App Store